WE8M Weather Reports


time (UTC)temp
C
wind
direction
speed
KPH
gust
KPH
rain 1hr
cm
rain 24hr
cm
rain mn
cm
humidity
%
barometer
mb
20260507120322 7 354 1.6 4.8 0.00 0.00 0.00 83 1015.9
20260507115819 7 326 4.8 6.4 0.00 0.00 0.00 83 1015.7
20260507115314 6 308 4.8 4.8 0.00 0.00 0.00 89 1015.4
20260507114810 6 321 3.2 4.8 0.00 0.00 0.00 94 1015.5
20260507114308 6 324 1.6 3.2 0.00 0.00 0.00 96 1015.4
20260507113805 6 310 3.2 3.2 0.00 0.00 0.00 97 1015.3
20260507113302 6 338 0.0 1.6 0.00 0.00 0.00 97 1015.2
20260507112800 7 345 0.0 1.6 0.00 0.00 0.00 97 1015.3
20260507112256 6 345 0.0 0.0 0.00 0.00 0.00 97 1015.2
20260507111754 6 346 0.0 0.0 0.00 0.00 0.00 97 1015.2
20260507111250 6 346 0.0 0.0 0.00 0.00 0.00 97 1015.3
20260507110746 6 345 0.0 0.0 0.00 0.00 0.00 98 1015.1
20260507110243 6 345 0.0 0.0 0.00 0.00 0.00 98 1015.0
20260507105740 5 345 0.0 0.0 0.00 0.00 0.00 98 1015.0
20260507105236 4 345 0.0 0.0 0.00 0.00 0.00 98 1014.8
20260507104734 3 345 0.0 0.0 0.00 0.00 0.00 97 1014.8
20260507104230 3 345 0.0 0.0 0.00 0.00 0.00 97 1014.8
20260507103726 3 345 0.0 0.0 0.00 0.00 0.00 97 1014.8
20260507103222 4 345 0.0 0.0 0.00 0.00 0.00 97 1014.8
20260507102719 4 345 0.0 0.0 0.00 0.00 0.00 97 1014.9
20260507102215 4 345 0.0 0.0 0.00 0.00 0.00 97 1014.8
20260507101712 4 345 0.0 0.0 0.00 0.00 0.00 97 1014.8
20260507101207 4 345 0.0 0.0 0.00 0.00 0.00 97 1014.9
20260507100705 4 345 0.0 0.0 0.00 0.00 0.00 97 1014.8
20260507100203 4 345 0.0 0.0 0.00 0.00 0.00 97 1014.9
20260507095701 4 345 0.0 0.0 0.00 0.00 0.00 97 1014.7
20260507095157 4 345 0.0 0.0 0.00 0.00 0.00 97 1014.8
20260507094653 4 345 0.0 0.0 0.00 0.00 0.00 97 1014.7
20260507094150 4 345 0.0 0.0 0.00 0.00 0.00 97 1014.8
20260507093648 4 345 0.0 0.0 0.00 0.00 0.00 97 1014.7
20260507093146 4 345 0.0 0.0 0.00 0.00 0.00 97 1014.7
20260507092643 4 345 0.0 0.0 0.00 0.00 0.00 97 1014.5
20260507092139 4 345 0.0 0.0 0.00 0.00 0.00 97 1014.7
20260507091636 4 345 0.0 0.0 0.00 0.00 0.00 97 1014.7
20260507091132 4 345 0.0 0.0 0.00 0.00 0.00 97 1014.7
20260507090628 4 345 0.0 0.0 0.00 0.00 0.00 97 1014.8
20260507090125 4 345 0.0 0.0 0.00 0.00 0.00 97 1014.6
20260507085622 4 345 0.0 0.0 0.00 0.00 0.00 97 1014.6
20260507085118 4 345 0.0 0.0 0.00 0.00 0.00 97 1014.5
20260507084615 4 345 0.0 0.0 0.00 0.00 0.00 97 1014.5
20260507084112 4 345 0.0 0.0 0.00 0.00 0.00 97 1014.7
20260507083609 4 345 0.0 0.0 0.00 0.00 0.00 97 1014.6
20260507083106 4 345 0.0 0.0 0.00 0.00 0.00 97 1014.4
20260507082602 4 345 0.0 0.0 0.00 0.00 0.00 97 1014.5
20260507082058 4 345 0.0 0.0 0.00 0.00 0.00 96 1014.5
20260507081554 4 345 0.0 0.0 0.00 0.00 0.00 96 1014.4
20260507081052 4 345 0.0 0.0 0.00 0.00 0.00 96 1014.4
20260507080547 4 345 0.0 0.0 0.00 0.00 0.00 96 1014.7
20260507080044 5 345 0.0 0.0 0.00 0.00 0.00 96 1014.5
20260507075539 5 345 0.0 0.0 0.00 0.00 0.00 96 1014.5
20260507075036 5 345 0.0 0.0 0.00 0.00 0.00 96 1014.6
20260507074533 5 345 0.0 0.0 0.00 0.00 0.00 96 1014.7
20260507074032 5 345 0.0 0.0 0.00 0.00 0.00 96 1014.7
20260507073527 5 345 0.0 0.0 0.00 0.00 0.00 96 1014.6
20260507073024 5 345 0.0 0.0 0.00 0.00 0.00 96 1014.6
20260507072521 5 345 0.0 0.0 0.00 0.00 0.00 96 1014.5
20260507072018 5 345 0.0 0.0 0.00 0.00 0.00 96 1014.3
20260507071516 5 345 0.0 0.0 0.00 0.00 0.00 96 1014.4
20260507071012 5 345 0.0 0.0 0.00 0.00 0.00 96 1014.3
20260507070509 5 345 0.0 0.0 0.00 0.00 0.00 96 1014.5
20260507070010 5 345 0.0 0.0 0.00 0.00 0.00 96 1014.5
20260507065502 5 345 0.0 0.0 0.00 0.00 0.00 96 1014.8
20260507065000 5 345 0.0 1.6 0.00 0.00 0.00 96 1014.4
20260507064458 5 346 1.6 1.6 0.00 0.00 0.00 96 1014.6
20260507063956 5 347 0.0 0.0 0.00 0.00 0.00 96 1014.5
20260507063452 5 347 0.0 0.0 0.00 0.00 0.00 96 1014.4
20260507062949 5 347 0.0 0.0 0.00 0.00 0.00 96 1014.6
20260507062446 5 347 0.0 0.0 0.00 0.00 0.00 96 1014.5
20260507061944 5 347 0.0 0.0 0.00 0.00 0.00 95 1014.9
20260507061442 5 347 0.0 0.0 0.00 0.00 0.00 95 1014.5
20260507060940 5 347 0.0 0.0 0.00 0.00 0.00 95 1014.6
20260507060436 5 347 0.0 0.0 0.00 0.00 0.00 96 1014.7
20260507055933 5 347 0.0 0.0 0.00 0.00 0.00 95 1014.4
20260507055428 5 347 0.0 0.0 0.00 0.00 0.00 95 1014.8
20260507054925 5 347 0.0 0.0 0.00 0.00 0.00 95 1014.8
20260507054421 5 347 0.0 0.0 0.00 0.00 0.00 95 1014.8
20260507053919 5 347 0.0 0.0 0.00 0.00 0.00 94 1014.6
20260507053416 5 347 0.0 0.0 0.00 0.00 0.00 94 1014.6
20260507052915 6 347 0.0 0.0 0.00 0.00 0.00 94 1014.9
20260507052412 6 347 0.0 0.0 0.00 0.00 0.00 94 1014.9
20260507051909 6 347 0.0 1.6 0.00 0.00 0.00 94 1014.6
20260507051407 6 316 1.6 1.6 0.00 0.00 0.00 94 1014.8
20260507050903 6 315 0.0 0.0 0.00 0.00 0.00 94 1014.9
20260507050400 6 315 0.0 0.0 0.00 0.00 0.00 93 1015.0
20260507045857 6 315 0.0 0.0 0.00 0.00 0.00 93 1015.1
20260507045353 6 315 0.0 0.0 0.00 0.00 0.00 94 1015.1
20260507044850 6 315 0.0 0.0 0.00 0.00 0.00 94 1015.1
20260507044347 6 315 0.0 0.0 0.00 0.00 0.00 94 1014.9
20260507043843 6 315 0.0 0.0 0.00 0.00 0.00 94 1015.0
20260507043340 6 315 0.0 0.0 0.00 0.00 0.00 94 1015.0
20260507042836 6 316 0.0 0.0 0.00 0.00 0.00 93 1015.0
20260507042332 6 316 0.0 0.0 0.00 0.00 0.00 93 1015.0
20260507041829 6 316 0.0 0.0 0.00 0.00 0.00 93 1015.0
20260507041325 6 315 0.0 0.0 0.00 0.00 0.00 93 1014.8
20260507040822 7 315 0.0 0.0 0.00 0.00 0.00 93 1014.9
20260507040318 7 315 0.0 0.0 0.00 0.00 0.00 93 1014.6
20260507035814 7 316 0.0 0.0 0.00 1.27 1.27 93 1014.6
20260507035310 6 315 0.0 0.0 0.00 1.27 1.27 93 1014.9
20260507034808 7 315 0.0 0.0 0.00 1.27 1.27 92 1014.7
20260507034305 7 315 0.0 0.0 0.00 1.27 1.27 92 1015.0
20260507033803 7 316 0.0 0.0 0.00 1.27 1.27 92 1014.9
20260507033300 7 315 0.0 0.0 0.00 1.27 1.27 92 1015.1
20260507032757 7 315 0.0 0.0 0.00 1.27 1.27 91 1014.8
20260507032253 7 316 0.0 0.0 0.00 1.27 1.27 90 1015.0
20260507031750 7 316 0.0 0.0 0.00 1.27 1.27 89 1014.9
20260507031247 7 316 0.0 0.0 0.00 1.27 1.27 89 1014.8
20260507030743 7 316 0.0 0.0 0.00 1.27 1.27 88 1015.0
20260507030241 8 315 0.0 0.0 0.00 1.27 1.27 88 1015.0
20260507025738 8 315 0.0 0.0 0.00 1.27 1.27 86 1015.2
20260507025235 8 315 0.0 0.0 0.00 1.27 1.27 86 1014.9
20260507024733 8 316 0.0 0.0 0.00 1.27 1.27 87 1014.9
20260507024230 9 316 0.0 0.0 0.00 1.27 1.27 87 1015.1
20260507023725 9 315 0.0 0.0 0.00 1.27 1.27 86 1014.9
20260507023223 9 316 0.0 0.0 0.00 1.27 1.27 83 1015.0
20260507022720 10 315 0.0 0.0 0.00 1.27 1.27 82 1014.8
20260507022216 10 315 0.0 0.0 0.00 1.27 1.27 78 1015.1
20260507021712 10 315 0.0 0.0 0.00 1.27 1.27 72 1015.0
20260507021207 10 315 0.0 0.0 0.00 1.27 1.27 67 1014.9
20260507020707 10 315 0.0 0.0 0.00 1.27 1.27 64 1014.7
20260507020202 10 315 0.0 0.0 0.00 1.27 1.27 65 1014.9
20260507015700 10 316 0.0 0.0 0.00 1.27 1.27 67 1014.7
20260507015157 10 315 0.0 0.0 0.00 1.27 1.27 70 1014.8
20260507014653 10 316 0.0 0.0 0.00 1.27 1.27 66 1014.7
20260507014150 10 315 0.0 1.6 0.00 1.27 1.27 67 1014.6
20260507013647 10 315 0.0 0.0 0.00 1.27 1.27 71 1014.7
20260507013144 11 315 0.0 0.0 0.00 1.27 1.27 70 1014.5
20260507012642 11 318 1.6 3.2 0.00 1.27 1.27 62 1014.2
20260507012137 11 355 1.6 3.2 0.00 1.27 1.27 63 1014.2
20260507011635 11 323 1.6 3.2 0.00 1.27 1.27 62 1014.2
20260507011131 11 318 1.6 3.2 0.00 1.27 1.27 61 1014.5
20260507010626 11 323 1.6 4.8 0.00 1.27 1.27 62 1014.1
20260507010122 11 319 4.8 6.4 0.00 1.27 1.27 62 1014.2
20260507005619 11 325 3.2 4.8 0.00 1.27 1.27 63 1014.2
20260507005115 11 323 3.2 6.4 0.00 1.27 1.27 62 1014.4
20260507004613 12 337 8.0 11.3 0.00 1.27 1.27 60 1014.4
20260507004110 12 299 3.2 9.7 0.00 1.27 1.27 59 1014.2
20260507003606 12 322 1.6 4.8 0.00 1.27 1.27 60 1014.1
20260507003101 12 318 4.8 6.4 0.00 1.27 1.27 59 1014.2
20260507002558 12 320 8.0 9.7 0.00 1.27 1.27 57 1013.9
20260507002053 12 322 9.7 11.3 0.00 1.27 1.27 58 1014.0
20260507001550 12 323 9.7 12.9 0.00 1.27 1.27 57 1013.9
20260507001048 12 329 8.0 11.3 0.00 1.27 1.27 58 1013.9
20260507000544 12 316 6.4 9.7 0.00 1.27 1.27 60 1013.8
20260507000039 12 320 6.4 11.3 0.00 1.27 1.27 61 1013.5
20260506235537 12 336 8.0 14.5 0.00 1.27 1.27 57 1013.4
20260506235032 12 356 3.2 9.7 0.00 1.27 1.27 60 1013.3
20260506234531 12 327 4.8 11.3 0.00 1.27 1.27 59 1013.2
20260506234027 12 324 4.8 9.7 0.00 1.27 1.27 60 1013.4
20260506233524 12 352 8.0 11.3 0.00 1.27 1.27 59 1013.4
20260506233021 13 310 6.4 12.9 0.00 1.27 1.27 59 1013.2
20260506232517 13 304 6.4 9.7 0.00 1.27 1.27 59 1012.9
20260506232013 13 355 9.7 12.9 0.00 1.27 1.27 57 1013.0
20260506231510 13 5 12.9 14.5 0.00 1.27 1.27 55 1012.9
20260506231008 13 5 8.0 12.9 0.00 1.27 1.27 58 1013.3
20260506230504 13 347 6.4 12.9 0.00 1.27 1.27 61 1013.0
20260506230002 13 9 6.4 11.3 0.00 1.27 1.27 60 1013.1
20260506225459 13 16 8.0 11.3 0.00 1.27 1.27 60 1013.0
20260506224954 13 11 4.8 12.9 0.00 1.27 1.27 61 1013.2
20260506224452 13 307 6.4 12.9 0.00 1.27 1.27 57 1013.3
20260506223948 13 330 12.9 16.1 0.00 1.27 1.27 56 1013.8
20260506223444 13 320 6.4 12.9 0.00 1.27 1.27 58 1013.4
20260506222941 13 316 8.0 14.5 0.00 1.27 1.27 56 1013.4
20260506222438 13 317 12.9 14.5 0.00 1.27 1.27 56 1013.2
20260506221935 13 319 6.4 11.3 0.00 1.27 1.27 56 1013.4
20260506221432 13 317 9.7 12.9 0.00 1.27 1.27 55 1013.7
20260506220930 13 318 1.6 12.9 0.00 1.27 1.27 56 1013.6
20260506220425 13 332 12.9 17.7 0.00 1.27 1.27 53 1013.6
20260506215922 13 334 9.7 12.9 0.00 1.27 1.27 53 1013.5
20260506215418 13 319 11.3 12.9 0.00 1.27 1.27 52 1013.6
20260506214914 13 325 4.8 11.3 0.00 1.27 1.27 53 1013.7
20260506214411 13 340 8.0 9.7 0.00 1.27 1.27 52 1013.5
20260506213909 14 355 4.8 12.9 0.00 1.27 1.27 54 1013.2
20260506213406 14 336 6.4 9.7 0.00 1.27 1.27 56 1013.1
20260506212903 14 8 6.4 9.7 0.00 1.27 1.27 57 1013.1
20260506212359 14 9 6.4 9.7 0.00 1.27 1.27 54 1013.1
20260506211854 14 354 9.7 12.9 0.00 1.27 1.27 56 1013.1
20260506211350 14 349 6.4 12.9 0.00 1.27 1.27 56 1013.2
20260506210848 15 322 11.3 16.1 0.00 1.27 1.27 51 1013.0
20260506210344 15 333 6.4 11.3 0.00 1.27 1.27 47 1013.0
20260506205842 15 266 1.6 3.2 0.00 1.27 1.27 52 1013.0
20260506205337 15 321 6.4 12.9 0.00 1.27 1.27 51 1012.8
20260506204834 15 293 8.0 11.3 0.00 1.27 1.27 50 1012.7
20260506204332 15 322 6.4 11.3 0.00 1.27 1.27 48 1013.0
20260506203829 15 6 1.6 3.2 0.00 1.27 1.27 54 1012.9
20260506203326 15 344 3.2 11.3 0.00 1.27 1.27 59 1012.9
20260506202823 15 2 6.4 11.3 0.00 1.27 1.27 53 1012.8
20260506202320 15 43 3.2 9.7 0.00 1.27 1.27 53 1012.7
20260506201816 15 2 8.0 14.5 0.00 1.27 1.27 53 1012.8
20260506201314 15 323 6.4 9.7 0.00 1.27 1.27 48 1012.9
20260506200811 15 299 6.4 11.3 0.00 1.27 1.27 48 1013.1
20260506200307 15 242 1.6 3.2 0.00 1.27 1.27 50 1013.0
20260506195803 15 0 6.4 9.7 0.00 1.27 1.27 53 1013.0
20260506195300 15 46 0.0 3.2 0.00 1.27 1.27 51 1013.0
20260506194757 16 0 4.8 6.4 0.00 1.27 1.27 52 1013.0
20260506194253 15 352 0.0 6.4 0.00 1.27 1.27 52 1012.8
20260506193752 15 22 4.8 11.3 0.00 1.27 1.27 54 1012.8
20260506193248 15 22 9.7 12.9 0.00 1.27 1.27 57 1012.7
20260506192744 15 329 4.8 4.8 0.00 1.27 1.27 49 1012.9
20260506192241 15 29 4.8 9.7 0.00 1.27 1.27 55 1012.7
20260506191738 16 9 4.8 9.7 0.00 1.27 1.27 55 1012.9
20260506191234 16 314 3.2 4.8 0.00 1.27 1.27 55 1012.4
20260506190732 16 323 6.4 11.3 0.00 1.27 1.27 52 1012.7
20260506190228 15 9 6.4 12.9 0.00 1.27 1.27 60 1012.7
20260506185725 15 63 6.4 9.7 0.00 1.27 1.27 58 1012.5
20260506185221 15 10 9.7 17.7 0.00 1.27 1.27 56 1012.4
20260506184719 15 24 11.3 12.9 0.00 1.27 1.27 56 1012.5
20260506184216 15 334 6.4 9.7 0.00 1.27 1.27 51 1012.7
20260506183713 15 20 11.3 14.5 0.00 1.27 1.27 56 1012.5
20260506183209 15 8 6.4 14.5 0.00 1.27 1.27 50 1012.8
20260506182706 15 19 9.7 12.9 0.00 1.27 1.27 59 1012.7
20260506182203 15 308 6.4 11.3 0.00 1.27 1.27 63 1012.8
20260506181701 15 52 8.0 14.5 0.00 1.27 1.27 62 1012.8
20260506181158 15 358 9.7 12.9 0.00 1.27 1.27 58 1012.8
20260506180655 15 11 8.0 12.9 0.00 1.27 1.27 55 1012.4
20260506180151 15 26 8.0 11.3 0.00 1.27 1.27 63 1013.0
20260506175648 14 43 6.4 9.7 0.00 1.27 1.27 63 1013.0
20260506175145 14 8 4.8 12.9 0.00 1.27 1.27 58 1013.2
20260506174643 13 9 4.8 16.1 0.00 1.27 1.27 58 1012.9
20260506174139 14 37 9.7 12.9 0.00 1.27 1.27 57 1013.1
20260506173637 14 27 8.0 12.9 0.00 1.27 1.27 60 1013.2
20260506173134 14 324 8.0 12.9 0.00 1.27 1.27 60 1013.1
20260506172631 13 14 8.0 12.9 0.00 1.27 1.27 61 1013.1
20260506172127 13 8 11.3 12.9 0.00 1.27 1.27 62 1013.1
20260506171625 14 37 9.7 12.9 0.00 1.27 1.27 61 1013.1
20260506171122 14 8 8.0 14.5 0.00 1.27 1.27 63 1013.4
20260506170620 13 62 4.8 11.3 0.00 1.27 1.27 65 1013.4
20260506170117 13 293 8.0 12.9 0.00 1.27 1.27 62 1013.3
20260506165615 13 13 9.7 11.3 0.00 1.27 1.27 66 1013.2
20260506165111 13 17 11.3 14.5 0.00 1.27 1.27 67 1013.2
20260506164608 13 19 4.8 9.7 0.00 1.27 1.27 65 1013.1
20260506164106 13 15 8.0 12.9 0.00 1.27 1.27 67 1013.2
20260506163601 13 20 4.8 12.9 0.00 1.27 1.27 71 1013.1
20260506163057 13 317 6.4 12.9 0.00 1.27 1.27 69 1013.0
20260506162554 13 10 6.4 11.3 0.00 1.27 1.27 65 1013.0
20260506162051 12 22 3.2 9.7 0.00 1.27 1.27 68 1013.1
20260506161549 12 27 6.4 11.3 0.00 1.27 1.27 70 1013.2
20260506161045 12 17 6.4 11.3 0.00 1.27 1.27 70 1013.1
20260506160543 12 18 6.4 12.9 0.00 1.27 1.27 68 1013.3
20260506160039 12 310 11.3 14.5 0.00 1.27 1.27 67 1013.3
20260506155538 12 348 8.0 14.5 0.00 1.27 1.27 72 1013.4
20260506153709 12 40 9.7 14.5 0.00 1.27 1.27 73 1012.8
20260506153207 12 10 4.8 9.7 0.00 1.27 1.27 70 1012.8
20260506152703 12 296 8.0 12.9 0.00 1.27 1.27 69 1012.8
20260506152201 12 9 8.0 11.3 0.00 1.27 1.27 75 1012.7
20260506151700 11 353 6.4 11.3 0.00 1.27 1.27 73 1012.8
20260506151156 12 13 4.8 11.3 0.00 1.27 1.27 74 1012.5
20260506150652 11 352 4.8 6.4 0.00 1.27 1.27 75 1012.4
20260506150150 11 305 6.4 11.3 0.00 1.27 1.27 73 1012.5
20260506145646 11 34 8.0 16.1 0.00 1.27 1.27 75 1012.0
20260506145143 11 16 4.8 12.9 0.00 1.27 1.27 73 1012.0
20260506144641 11 19 8.0 12.9 0.00 1.27 1.27 77 1012.0
20260506144137 11 4 8.0 12.9 0.00 1.27 1.27 78 1012.2
20260506143635 11 9 8.0 14.5 0.00 1.27 1.27 76 1012.2
20260506143133 10 358 6.4 12.9 0.00 1.27 1.27 78 1012.0
20260506142631 10 4 8.0 12.9 0.00 1.27 1.27 77 1011.6
20260506142129 10 1 9.7 12.9 0.00 1.27 1.27 78 1011.8
20260506141626 10 9 8.0 12.9 0.00 1.27 1.27 79 1011.8
20260506141124 10 12 9.7 11.3 0.00 1.27 1.27 81 1011.6
20260506140622 10 5 8.0 12.9 0.00 1.27 1.27 80 1011.7
20260506140119 10 7 8.0 11.3 0.00 1.27 1.27 81 1011.7
20260506135615 10 7 9.7 11.3 0.00 1.27 1.27 82 1011.6
20260506135112 10 9 6.4 12.9 0.00 1.27 1.27 83 1011.7
20260506134608 10 4 6.4 9.7 0.00 1.27 1.27 82 1011.6
20260506134104 10 12 8.0 11.3 0.00 1.27 1.27 83 1011.4
20260506133602 10 7 6.4 12.9 0.00 1.27 1.27 84 1011.6
20260506133058 9 351 4.8 9.7 0.00 1.27 1.27 87 1011.3
20260506132556 8 8 8.0 9.7 0.00 1.27 1.27 87 1011.2
20260506132053 8 351 6.4 12.9 0.00 1.27 1.27 87 1011.2
20260506131550 8 3 11.3 14.5 0.00 1.27 1.27 87 1011.2
20260506131046 8 7 9.7 11.3 0.00 1.27 1.27 88 1011.2
20260506130543 8 13 8.0 11.3 0.00 1.27 1.27 89 1011.1
20260506130041 8 11 6.4 11.3 0.00 1.27 1.27 89 1011.0
20260506125539 8 9 4.8 6.4 0.00 1.27 1.27 90 1011.0
20260506125036 8 10 6.4 11.3 0.00 1.27 1.27 89 1011.0
20260506124534 8 3 6.4 11.3 0.00 1.27 1.27 91 1011.1
20260506124032 8 347 3.2 11.3 0.00 1.27 1.27 90 1011.2
20260506123529 8 6 8.0 12.9 0.00 1.27 1.27 90 1011.2
20260506123027 8 6 9.7 14.5 0.00 1.27 1.27 91 1010.8
20260506122523 8 9 11.3 12.9 0.00 1.27 1.27 92 1010.6
20260506122022 7 9 9.7 12.9 0.00 1.27 1.27 93 1010.6
20260506121519 8 323 8.0 14.5 0.00 1.27 1.27 94 1010.6
20260506121015 7 13 9.7 12.9 0.00 1.27 1.27 94 1010.3